星链-31187 (STARLINK-31187 )

导读

STARLINK-31187是美国太空探索技术公司(SpaceX)星链互联网卫星项目中的一颗卫星,于北京时间2024年1月15日发射,归入星链星座组网,为全球提供低延迟、高速率的卫星互联网服务,进一步扩展星链星座覆盖范围,助力项目全球化部署。

Basic Information
目录编号:
58790
目录名称:
STARLINK-31187
国际标识:
2024-012D
轨道中心:
EARTH
卫星名称:
星链-31187
卫星全名:
星链-31187 (STARLINK-31187 )
卫星状态:
在轨 (已飞行885 天)
发射日期:
2024-01-15 UTC
国别 :
美国 (US)
星等 :
--
Orbit Information
数据来源 国际轨道数据
星历时间: 2026-06-17T11:42:41+0800
1天前
查看轨道信息
半长轴: 6861.178km
偏心率: 0.0002339
轨道倾角: 43.005°
近地点辐角 273.826°
升交点赤经 323.889°
平近点角 86.232°
近地点: 481.436km
远地点: 484.646km
周期: 94.267分钟
每日圈数: 15.275828
Detailed Information
固有亮度:
5
最大亮度:
0.3
卫星平台:
Starlink v2.0 mini
覆盖范围:
全球
运营商:
太空探索技术公司
运营商所在国:
美国
制造商(研发单位):
太空探索技术公司
制造商所在国:
美国
使用方式:
暂无
Satellite Introduction
星链(Starlink)计划是由太空探索技术公司(SpaceX)提出的一个巨型低轨卫星互联网星座项目,计划在2019年至2024年间在太空搭建由约1.2万颗卫星组成的“星链”网络,其中1584颗将部署在地球上空550千米处的近地轨道,并从2020年开始工作。该卫星仍在工作。
2D Orbit Map
3D Orbit Map
Orbit Altitude Analysis Chart
Orbit Inclination Analysis Chart
Orbit Comprehensive Analysis Chart
View Comprehensive Chart